This is the latest recevied weather packets stored in our database for station/object KF7SOJ. If no packets are shown the sender has not sent any weather packets the latest 10 day(s).
| Time | Temp. | Humidity | Pressure | Rain* | Wind** | Luminosity | Snow |
|---|---|---|---|---|---|---|---|
| 1788082076 | 14.44° C | 74% | 927.1 hPa | 0 mm | - | 0 W/m² | - |
| 1788081773 | 14.44° C | 73% | 927.2 hPa | 0 mm | - | 0 W/m² | - |
| 1788081469 | 14.44° C | 73% | 927.1 hPa | 0 mm | - | 0 W/m² | - |
| 1788081169 | 15° C | 71% | 927.1 hPa | 0 mm | - | 0 W/m² | - |
| 1788080868 | 15° C | 72% | 927.1 hPa | 0 mm | - | 0 W/m² | - |
| 1788080564 | 15° C | 73% | 927.2 hPa | 0 mm | - | 0 W/m² | - |
| 1788080263 | 15° C | 72% | 927.1 hPa | 0 mm | - | 0 W/m² | - |
| 1788079959 | 15° C | 73% | 927 hPa | 0 mm | - | 0 W/m² | - |
| 1788079654 | 15° C | 71% | 926.8 hPa | 0 mm | - | 0 W/m² | - |
| 1788079350 | 15.56° C | 69% | 926.9 hPa | 0 mm | - | 0 W/m² | - |
| 1788079050 | 15.56° C | 69% | 926.9 hPa | 0 mm | - | 0 W/m² | - |
| 1788078746 | 15.56° C | 71% | 926.9 hPa | 0 mm | - | 0 W/m² | - |
| 1788078445 | 15° C | 71% | 926.9 hPa | 0 mm | - | 0 W/m² | - |
| 1788078141 | 15° C | 71% | 927 hPa | 0 mm | - | 0 W/m² | - |
| 1788077836 | 15° C | 72% | 926.9 hPa | 0 mm | - | 0 W/m² | - |
| 1788077536 | 15° C | 71% | 927 hPa | 0 mm | - | 0 W/m² | - |
| 1788077230 | 15.56° C | 70% | 927.1 hPa | 0 mm | - | 0 W/m² | - |
| 1788076927 | 15.56° C | 70% | 927.1 hPa | 0 mm | - | 0 W/m² | - |
| 1788076625 | 15.56° C | 69% | 927.1 hPa | 0 mm | - | 0 W/m² | - |
| 1788076321 | 16.11° C | 68% | 927.1 hPa | 0 mm | - | 0 W/m² | - |
| 1788076017 | 16.67° C | 65% | 927 hPa | 0 mm | - | 0 W/m² | - |
| 1788075712 | 17.22° C | 63% | 927.1 hPa | 0 mm | - | 0 W/m² | - |
| 1788075408 | 17.22° C | 63% | 926.9 hPa | 0 mm | - | 0 W/m² | - |
| 1788075103 | 16.67° C | 65% | 927 hPa | 0 mm | - | 0 W/m² | - |
| 1788074799 | 17.22° C | 64% | 927.1 hPa | 0 mm | - | 0 W/m² | - |
* Rain latest hour (hover to see other rain measurements)
** Current wind speed in m/s (hover to see current wind gust speed)